This demonstration page uses our WeatherBlox Daily Observations layout. Learn more.

Hourly Observations for April 1, 2015

Temp ( °F °C ) Dew Point ( °F °C ) Humidity (%) Winds ( mph kmh ) Pressure ( in mb ) Visibility ( mi km ) Precip ( " mm )
12:15 am 00:15 Clear 59 14.9 29 -1.5 33 33 S 15 24 29.74 1007 10 16.0934 0 0
12:35 am 00:35 Clear 58 14.5 29 -1.5 33 33 S 14 22 29.74 1007 10 16.0934 0 0
12:55 am 00:55 Clear 57 13.7 30 -1.3 36 36 S 12 19 29.74 1007 10 16.0934 0 0
1:15 am 01:15 Clear 56 13.4 30 -1.2 37 37 S 10 17 29.77 1008 10 16.0934 0 0
1:35 am 01:35 Clear 55 12.5 31 -0.7 40 40 S 9 15 29.77 1008 10 16.0934 0 0
1:55 am 01:55 Clear 53 11.8 31 -0.6 43 43 S 8 13 29.77 1008 10 16.0934 0 0
2:15 am 02:15 Clear 51 10.7 31 -0.6 46 46 S 8 13 29.77 1008 10 16.0934 0 0
2:35 am 02:35 Clear 51 10.4 31 -0.7 46 46 S 9 15 29.8 1009 10 16.0934 0 0
2:55 am 02:55 Clear 51 10.3 31 -0.5 47 47 S 12 19 29.8 1009 10 16.0934 0 0
3:15 am 03:15 Clear 51 10.8 31 -0.4 46 46 S 9 15 29.77 1008 10 16.0934 0 0
3:35 am 03:35 Clear 51 10.6 32 0 48 48 S 9 15 29.77 1008 10 16.0934 0 0
3:55 am 03:55 Clear 50 10.1 32 0 50 50 S 8 13 29.77 1008 10 16.0934 0 0
4:15 am 04:15 Clear 50 10 32 0.2 51 51 S 9 15 29.77 1008 10 16.0934 0 0
4:35 am 04:35 Clear 51 10.3 33 0.5 51 51 S 10 17 29.77 1008 10 16.0934 0 0
4:55 am 04:55 Clear 52 11.1 34 1 50 50 S 9 15 29.74 1007 10 16.0934 0 0
5:15 am 05:15 Clear 53 11.4 35 1.6 51 51 S 13 20 29.74 1007 10 16.0934 0 0
5:35 am 05:35 Clear 53 11.8 36 2.1 52 52 S 15 24 29.71 1006 10 16.0934 0 0
5:55 am 05:55 Clear 53 11.9 37 2.5 53 53 S 13 20 29.71 1006 10 16.0934 0 0
6:15 am 06:15 Clear 52 10.9 37 2.5 56 56 S 10 17 29.71 1006 10 16.0934 0 0
6:35 am 06:35 Clear 53 11.5 38 3.2 57 57 S 13 20 29.71 1006 10 16.0934 0 0
6:55 am 06:55 Clear 53 11.6 38 3.5 58 58 S 13 20 29.71 1006 10 16.0934 0 0
7:15 am 07:15 Clear 53 11.4 39 3.7 59 59 S 9 15 29.71 1006 10 16.0934 0 0
7:35 am 07:35 Sunny 52 11.1 39 4.1 62 62 S 14 22 29.71 1006 10 16.0934 0 0
7:55 am 07:55 Sunny 53 11.5 40 4.5 62 62 S 14 22 29.71 1006 10 16.0934 0 0
8:15 am 08:15 Sunny 55 12.7 41 5.2 61 61 S 16 26 29.71 1006 10 16.0934 0 0
8:35 am 08:35 Sunny 57 14.1 43 6 58 58 SSW 15 24 29.68 1005 10 16.0934 0 0
8:55 am 08:55 Sunny 60 15.6 43 6.3 54 54 SSW 18 30 29.68 1005 10 16.0934 0 0
9:55 am 09:55 Sunny 65 18.5 43 6.3 45 45 SSW 21 33 29.65 1004 10 16.0934 0 0
10:15 am 10:15 undefined 67 19.3 43 6.1 42 42 SSW 24 39 29.65 1004 10 16.0934 0 0
10:35 am 10:35 Sunny 69 20.4 43 6.3 40 40 SSW 20 31 29.65 1004 10 16.0934 0 0
10:55 am 10:55 Sunny 71 21.6 42 5.8 36 36 SSW 25 41 29.62 1003 10 16.0934 0 0
11:15 am 11:15 Sunny 73 22.6 42 5.7 34 34 SW 20 31 29.59 1002 10 16.0934 0 0
11:35 am 11:35 Sunny 74 23.5 42 5.5 31 31 SSW 18 30 29.56 1001 10 16.0934 0 0
11:55 am 11:55 Sunny 75 23.9 42 5.4 30 30 S 25 41 29.56 1001 10 16.0934 0 0
12:15 pm 12:15 Sunny 76 24.6 42 5.3 29 29 SSW 23 37 29.53 1000 10 16.0934 0 0
12:35 pm 12:35 Sunny 78 25.3 41 5.1 27 27 SSW 26 43 29.53 1000 10 16.0934 0 0
12:55 pm 12:55 Sunny 77 25.1 41 5.1 28 28 S 25 41 29.5 999 10 16.0934 0 0
1:15 pm 13:15 Sunny 79 26.2 41 5.1 26 26 SSW 22 35 29.5 999 10 16.0934 0 0
1:35 pm 13:35 Sunny 80 26.5 41 4.8 25 25 SSW 24 39 29.47 998 10 16.0934 0 0
1:55 pm 13:55 Sunny 81 27.2 41 4.8 24 24 SSW 22 35 29.47 998 10 16.0934 0 0
2:15 pm 14:15 Sunny 82 27.5 40 4.2 22 22 S 22 35 29.44 997 10 16.0934 0 0
2:35 pm 14:35 Sunny 83 28.4 40 4.3 21 21 S 17 28 29.44 997 10 16.0934 0 0
2:55 pm 14:55 Sunny 81 27.1 40 4.4 23 23 SSW 16 26 29.44 997 10 16.0934 0 0
3:15 pm 15:15 Sunny 83 28.2 39 4.1 21 21 SSW 16 26 29.41 996 10 16.0934 0 0
3:35 pm 15:35 Sunny 84 29.1 39 3.8 20 20 SSW 15 24 29.41 996 10 16.0934 0 0
3:55 pm 15:55 Sunny 83 28.6 39 3.7 20 20 SSW 25 41 29.41 996 10 16.0934 0 0
4:15 pm 16:15 Sunny 84 29 38 3.2 19 19 S 15 24 29.41 996 10 16.0934 0 0
4:35 pm 16:35 Sunny 84 29.1 38 3.5 19 19 SSW 20 31 29.38 995 10 16.0934 0 0
4:55 pm 16:55 Sunny 83 28.5 38 3.5 20 20 S 13 20 29.38 995 10 16.0934 0 0
5:15 pm 17:15 Sunny 83 28.1 38 3.6 21 21 S 16 26 29.38 995 10 16.0934 0 0
5:35 pm 17:35 Sunny 82 28 38 3.6 21 21 S 13 20 29.38 995 10 16.0934 0 0
5:55 pm 17:55 Sunny 83 28.1 39 3.7 21 21 S 15 24 29.38 995 10 16.0934 0 0
6:15 pm 18:15 Sunny 82 27.5 40 4.7 23 23 S 12 19 29.38 995 10 16.0934 0 0
6:35 pm 18:35 Sunny 81 27.2 40 4.6 23 23 S 12 19 29.38 995 10 16.0934 0 0
6:55 pm 18:55 Sunny 76 24.5 25 -4.1 15 15 SSE 16 26 29.68 1005 10 16.0934 0 0
7:15 pm 19:15 Partly Cloudy 74 23.1 36 2.4 26 26 N 25 41 29.41 996 10 16.0934 0 0
7:35 pm 19:35 Sunny 70 21.1 36 2.3 29 29 N 21 33 29.44 997 10 16.0934 0 0
7:55 pm 19:55 Sunny with Nearby Thunderstorms 68 20.1 36 2.2 31 31 N 25 41 29.47 998 10 16.0934 0 0
8:15 pm 20:15 Mostly Cloudy 67 19.5 36 2.2 32 32 NNE 22 35 29.5 999 10 16.0934 0 0
8:35 pm 20:35 Partly Cloudy 66 19 36 2.1 33 33 N 18 30 29.53 1000 10 16.0934 0 0
8:55 pm 20:55 Clear 64 18 36 2.1 35 35 N 21 33 29.56 1001 10 16.0934 0 0
9:15 pm 21:15 Clear 64 17.6 36 2.3 36 36 NNE 20 31 29.59 1002 10 16.0934 0 0
9:35 pm 21:35 Clear with Nearby Thunderstorms 63 17.3 37 2.5 37 37 NNE 25 41 29.59 1002 10 16.0934 0 0
9:55 pm 21:55 Clear 63 17 37 2.6 38 38 N 22 35 29.62 1003 10 16.0934 0 0
10:15 pm 22:15 Clear 61 15.9 38 3.2 43 43 N 24 39 29.65 1004 10 16.0934 0 0
10:35 pm 22:35 Mostly Cloudy 60 15.5 39 3.9 46 46 NNW 12 19 29.74 1007 10 16.0934 0 0
10:55 pm 22:55 Cloudy with Light Rain 59 15 40 4.5 50 50 NW 5 7 29.77 1008 10 16.0934 0 0
11:15 pm 23:15 Cloudy 59 14.9 38 3.4 46 46 NNE 23 37 29.71 1006 10 16.0934 0 0
11:35 pm 23:35 Mostly Cloudy 56 13.5 39 3.9 53 53 NNE 24 39 29.71 1006 10 16.0934 0 0
11:55 pm 23:55 Clear 55 12.8 38 3.2 52 52 N 20 31 29.74 1007 10 16.0934 0 0

Powered by AerisWeather